Location: Borojevi?i
(45.0486°N, 16.2297°E)
Time: 21:51:25
(UTC+00:00)

SL-4 R/B - Pass Details

Date: 08 August 2020
Orbit: 428 x 665 km, 51.6° (Epoch: 21 September)

Event Time Altitude Azimuth Distance (km) Brightness Sun altitude
Rises 19:03:39 0° 214° (SW) 2,719 5.6 -8.9°
Reaches altitude 10° 19:06:06 10° 205° (SSW) 1,784 4.5 -9.2°
Maximum altitude 19:09:44 33° 140° (SE) 865 2.5 -9.8°
Drops below altitude 10° 19:13:09 10° 75° (ENE) 1,667 4.1 -10.3°
Sets 19:15:22 0° 66° (ENE) 2,512 5.1 -10.6°
